CDT,Max TemperatureF,Mean TemperatureF,Min TemperatureF,Max Dew PointF,MeanDew PointF,Min DewpointF,Max Humidity, Mean Humidity, Min Humidity, Max Sea Level PressureIn, Mean Sea Level PressureIn, Min Sea Level PressureIn, Max VisibilityMiles, Mean VisibilityMiles, Min VisibilityMiles, Max Wind SpeedMPH, Mean Wind SpeedMPH, Max Gust SpeedMPH,PrecipitationIn, CloudCover, Events, WindDirDegrees
2013-9-1,73,73,73,72,71,68,94,92,83,29.95,29.92,29.87,7,5,0,22,11,38,0.00,7,Fog-Rain-Thunderstorm,230
2013-9-2,,,,,,,,,,30.00,29.94,29.91,,,,,,,0.00,,,-1
2013-9-3,90,78,69,77,71,68,94,86,65,30.01,29.95,29.89,10,7,0,26,5,34,2.01,6,Fog-Rain-Thunderstorm,62
2013-9-4,91,80,69,77,72,68,100,85,57,30.07,30.00,29.94,10,8,0,12,1,,0.00,5,Fog,223
2013-9-5,93,82,72,76,72,69,94,78,47,30.09,30.04,30.00,10,10,8,8,3,,0.01,4,Rain-Thunderstorm,347
2013-9-6,91,82,73,72,69,66,93,69,44,30.06,30.01,29.96,10,10,10,7,3,,0.00,3,,15
2013-9-7,91,80,69,73,69,66,93,71,49,30.02,29.98,29.94,10,10,10,9,2,,0.00,2,Thunderstorm,128
2013-9-8,93,80,70,73,69,64,93,73,42,29.97,29.94,29.90,10,10,5,6,1,,0.00,1,,165
2013-9-9,91,80,70,73,69,66,93,71,44,30.02,29.98,29.93,10,10,5,12,2,,0.00,2,,103
2013-9-10,91,82,73,73,69,65,87,68,42,30.10,30.05,30.00,10,10,10,13,5,20,0.00,3,,75
2013-9-11,91,82,72,70,67,64,87,64,42,30.10,30.05,30.01,10,10,10,14,7,17,0.00,1,,64
2013-9-12,93,82,73,72,69,64,87,70,41,30.02,29.95,29.88,10,10,10,9,5,,0.00,2,,58
2013-9-13,91,80,68,73,69,65,93,70,41,29.89,29.84,29.78,10,10,8,8,3,,0.00,3,,319
2013-9-14,86,78,72,71,65,61,85,64,48,29.97,29.89,29.82,10,10,10,10,7,,0.00,3,,21
2013-9-15,93,78,66,73,67,60,90,65,48,30.03,29.99,29.96,10,10,10,9,5,,0.00,1,,117
2013-9-16,93,82,72,75,72,69,93,78,52,30.05,30.02,29.96,10,10,6,15,4,26,0.06,5,Fog-Rain-Thunderstorm,100
2013-9-17,91,82,73,73,71,69,94,78,50,30.05,30.01,29.95,10,9,2,16,5,22,0.55,5,Rain-Thunderstorm,75
2013-9-18,88,79,71,72,71,69,94,79,59,30.11,30.03,29.99,10,9,2,13,8,,0.08,5,Rain,76
2013-9-19,90,80,70,72,68,66,87,71,48,30.06,30.01,29.97,10,10,10,12,7,,0.00,2,,100
2013-9-20,90,79,71,74,71,65,91,75,58,30.00,29.92,29.84,10,10,7,13,5,16,0.06,4,Rain,132
2013-9-21,81,78,75,76,74,72,94,90,83,29.86,29.79,29.70,10,8,1,13,3,24,2.15,6,Rain-Thunderstorm,162
2013-9-22,77,73,69,73,69,66,96,88,76,29.81,29.76,29.71,10,9,4,12,6,,0.32,7,Rain,35
2013-9-23,89,80,71,74,72,69,94,82,55,29.89,29.81,29.76,10,10,4,9,6,,0.02,6,Rain,56
2013-9-24,84,76,71,75,73,68,100,89,74,29.91,29.84,29.75,10,9,1,17,6,26,1.15,8,Rain-Thunderstorm,102
2013-9-25,87,78,68,74,71,66,100,81,55,29.82,29.77,29.73,10,10,10,7,3,,0.00,4,,320
2013-9-26,88,76,66,72,68,64,93,78,51,29.93,29.86,29.78,10,10,4,10,4,,0.00,2,,30
2013-9-27,86,74,64,65,62,59,90,69,44,30.02,29.97,29.92,10,10,10,12,6,16,0.00,1,,60
2013-9-28,84,73,62,62,60,56,84,66,44,30.06,30.02,29.99,10,10,10,12,7,,0.00,0,,58
2013-9-29,84,73,62,65,61,56,81,68,46,30.03,29.98,29.92,10,10,10,10,5,,0.00,2,,57
2013-9-30,84,75,68,69,66,62,87,74,54,29.97,29.94,29.90,10,10,10,8,3,,0.00,5,Rain,74